CZ-6A DEB

Satellite information

Favourite Embed

Satellite Type and Status

DEBRISIN ORBIT

Key statistics

Satellite CZ-6A DEB at a glance.

Uptime

909

Days in orbit

Revolutions

≈ 14.2

Per day

Orbit

SSO

Sun Synchronous Orbit

Inclination

98.8

Latest

Satellite identification and parameters

Extended collection of information and parameters for CZ-6A DEB.

Object identification

Identified? True

Debris? True

Object name: CZ-6A DEB

International designator: 2022-151ACC

Object number (NORAD): 56260

Object ID (CCSDS): 56260

Country: PEOPLES REPUBLIC OF CHINA (PRC)

Current information (Y/N): Y

RCS size: SMALL

Orbital parameters

Period: 101.105 minutes

Inclination: 98.7694 deg

SMA: 7189.102 km

Apoapsis: 843.702 km

Periapsis: 778.231 km

RAAN: 146.395 deg

Eccentricy: 0.0045535

Argument of periapsis: 82.4379 deg

Mean anomaly: 278.1969 deg

Mean motion: 14.24265064 rev/day

Mean motion (dot): 0.00001231 rev/day2

B* drag term: 0.0005467 1/REarth

Two-line elements (TLE)

Creation date: May 8, 2025, 3:01 a.m.

Reference frame: TEME

Reference center: EARTH

Epoch: May 7, 2025, 7:12 p.m. UTC

TLE line 0: 0 CZ-6A DEB

TLE line 1: 1 56260U 22151ACC 25127.80053379 .00001231 00000-0 54670-3 0 9994

TLE line 2: 2 56260 98.7694 146.3950 0045535 82.4379 278.1969 14.24265064110858

Live tracking on map

Real-time ground track for satellite CZ-6A DEB.

In-orbit conjunctions

A list of the most updated potential collisions computed for object CZ-6A DEB.

Target Orbit TCA Probability of collision Miss distance Type
CZ-6A DEB LEO 2025-05-09 23:41:42 0.000138131 77.0 (m) DEBRIS
METEOR 1-17 DEB LEO 2024-11-08 05:25:59 0.0009464897 50.0 (m) DEBRIS
METEOR 2-8 DEB LEO 2024-07-28 20:48:49 0.0001068138 202.0 (m) DEBRIS

Associated space launch

Chinese satellite reported for atmospheric/ocean/environmental/spatial parameter research purposes, details TBD.

CZ-6A DEB was lifted into orbit during the mission ‘Long March 6A | Yunhai 3’, on board a Long March 6A space rocket.

The launch took place on Nov. 11, 2022, 10:52 p.m. from Launch Complex 9A.

For more information about the launch, click the button.

Launch to space Long March 6A | Yunhai 3
Long March 6A | Yunhai 3

Agency: N/A

Status: Launch Successful

Launch date: Nov. 11, 2022, 10:52 p.m. UTC

Rocket: Long March 6A

Launch pad: Launch Complex 9A

Location: Taiyuan Satellite Launch Center, People's Republic of China

...

Latest news about this satellite

There are no fresh news available about this satellite. Check back as we update our databases every day.


Newsletter sign-up

Weekly statistics, charts and insights to help you stay on top of the space industry.